STARLINK-35367 (65883 NORAD) Tracking and Keplerian Element Data

This shows tracking and keplerian element data for the satellite.

Feedback or suggestion? Click here.




ElementValue
Catalog65883
NameSTARLINK-35367
Epoch Orbit1263
Epoch Day354.05547146
Epoch Year2025
RAAN21.124
Inclination53.1598
Eccentricity0.0001561
Argument of Perigee87.4084
Mean Anonmoly272.7095
Mean Motion15.30203533
Decay Rate0.00014391
L11 65883U 25224B 25354.05547146 .00014391 00000+0 49700-3 0 9996
L22 65883 53.1598 21.1240 0001561 87.4084 272.7095 15.30203533 12636



Live tracking and technical data element details for STARLINK-35367 (NORAD 65883). STARLINK-35367 can be tracked NOW for your location showing map with azimuth and elevation plus other details from your city location.







IsCatalogInMostPopularTable: catalog: 65883, numindb: 3
Update: records affected: 1



GetName: 65883 STARLINK-35367

Hit Count: updated at: Tue, 10 Feb 2026 02:06:33 GMT